Flag for Germany Weather past 2 weeks in Gaggenau, Baden-Württemberg, Germany

Now
32 °F

Clear.


Feels Like: 32 °F
Forecast: 28 / 49 °F
Wind: 2 mph from Southeast

Location: Karlsruhe - Baden Wurttemberg

Current Time: Mar 6, 2015 at 12:15:03 AM

Latest Report: Mar 5, 2015 at 11:50 PM


Visibility: 10 mi

Pressure: 30.66 "Hg

Humidity: 80%

Dew point: 27 °F

Location of GaggenauLocation

Historic Weather in Gaggenau — Graph

°F

Gaggenau temperature yesterday

Maximum temperature yesterday: 46 °F (at 1:20 PM)
Minimum temperature yesterday: 36 °F (at 6:20 AM)
Average temperature yesterday: 41 °F

Past Weeks' High & Low Weather Summary

 TemperatureHumidityPressure
High57 °F (Feb 20, 1:50 PM)100% (Feb 19, 5:20 AM)30.66 "Hg (Feb 19, 5:20 AM)
Low23 °F (Feb 20, 5:20 AM)31% (Feb 20, 3:50 PM)29.50 "Hg (Feb 21, 6:20 AM)
Average41 °F73%30.01 "Hg
* Reported Feb 18 10:20 PM — Mar 5 10:50 PM, Gaggenau, Weather by CustomWeather, © 2015

Note: Actual official high and low records may vary slightly from our data, if they occured in-between our weather recording intervals... More about our weather records

Advertising

Gaggenau weather history for previous 24 hours

 ConditionsComfort  
Time TempWeatherWind HumidityBarometerVisibility
10:50 PM
Thu, Mar 5
36 °FClear.2 mph75%30.66 "Hg10 mi
10:20 PM37 °FClear.2 mph70%30.66 "Hg10 mi
9:20 PM37 °FClear.1 mph65%30.63 "Hg10 mi
8:50 PM37 °FClear.No wind65%30.63 "Hg10 mi
8:20 PM39 °FClear.2 mph61%30.63 "Hg10 mi
7:50 PM39 °FClear.1 mph61%30.63 "Hg10 mi
7:20 PM43 °FClear.2 mph53%30.63 "Hg10 mi
6:50 PM41 °FClear.5 mph57%30.63 "Hg10 mi
6:20 PM43 °FClear.6 mph53%30.60 "Hg10 mi
5:50 PM45 °FPassing clouds.6 mph49%30.60 "HgN/A
5:20 PM45 °FPassing clouds.6 mph46%30.60 "HgN/A
4:50 PM46 °FPassing clouds.3 mph43%30.60 "HgN/A
4:20 PM46 °FPassing clouds.5 mph43%30.60 "HgN/A
3:50 PM46 °FPassing clouds.6 mph43%30.60 "HgN/A
3:20 PM46 °FPassing clouds.8 mph43%30.60 "HgN/A
2:50 PM46 °FPassing clouds.8 mph43%30.60 "HgN/A
2:20 PM46 °FScattered clouds.10 mph43%30.60 "HgN/A
1:50 PM45 °FScattered clouds.8 mph46%30.63 "HgN/A
1:20 PM46 °FPassing clouds.9 mph43%30.63 "HgN/A
12:50 PM45 °FScattered clouds.12 mph49%30.63 "HgN/A
12:20 PM43 °FScattered clouds.7 mph57%30.63 "HgN/A
11:50 AM43 °FScattered clouds.8 mph49%30.63 "HgN/A
11:20 AM43 °FScattered clouds.7 mph53%30.63 "HgN/A
10:50 AM41 °FScattered clouds.8 mph57%30.63 "HgN/A
10:20 AM39 °FScattered clouds.6 mph70%30.63 "HgN/A
9:50 AM41 °FScattered clouds.5 mph66%30.63 "HgN/A
9:20 AM39 °FScattered clouds.2 mph70%30.63 "HgN/A
8:50 AM37 °FScattered clouds.1 mph75%30.63 "HgN/A
8:20 AM37 °FSunny.3 mph75%30.60 "Hg10 mi
7:50 AM36 °FSunny.3 mph81%30.60 "Hg10 mi
7:20 AM36 °FBroken clouds.5 mph81%30.60 "HgN/A
6:50 AM36 °FPassing clouds.5 mph81%30.60 "HgN/A
6:20 AM36 °FPassing clouds.2 mph81%30.57 "HgN/A
5:20 AM37 °FPartly cloudy.5 mph75%30.57 "HgN/A
Weather by CustomWeather, © 2015

See weather overviewHow to use our weather pages